Weather History for KF05 - April, 2014

Change the Weather History Date:

Wednesday, April 9, 2014

  Actual Average (KLTS) Record (KLTS)
Temperature  
Mean Temperature 66 °F -  
Max Temperature 91 °F 69 °F 97 °F (2011)
Min Temperature 40 °F 45 °F 26 °F (2003)
Growing Degree Days 16 (Base 50)    
Moisture  
Dew Point 32 °F    
Average Humidity 36    
Maximum Humidity 76    
Minimum Humidity 10    
Precipitation  
Precipitation 0.00 in - - ()
Sea Level Pressure  
Sea Level Pressure 30.04 in    
Wind  
Wind Speed 9 mph (South)    
Max Wind Speed 23 mph    
Max Gust Speed 31 mph    
Visibility 10 miles    
Events      
Averages and records for this station are not official NWS values.
T = Trace of Precipitation, MM = Missing Value Source: NWS Daily Summary

Daily Weather History Graph

Daily Weather History Graph

Search for Another Location

Airport or City:

Trip Planner

Search our weather history database for the weather conditions in past years. The results will help you decide how hot, cold, wet, or windy it might be!

Date:

Astronomy

Apr. 09, 2014 Rise Set
Actual Time 7:13 AM CDT 8:04 PM CDT
Civil Twilight 6:48 AM CDT 8:29 PM CDT
Nautical Twilight 6:18 AM CDT 8:59 PM CDT
Astronomical Twilight 5:47 AM CDT 9:31 PM CDT
Moon 3:06 PM CDT (4/9) 3:50 AM CDT (4/9)
Length of Visible Light 13h 41m
Length of Day
12h 50m
Waxing Gibbous, 72% of the Moon is Illuminated
Apr 9
Waxing Gibbous
Apr 15
Full
Apr 22
Last Quarter
Apr 29
New
May 6
First Quarter

Hourly Weather History & Observations

Time (CDT) Temp. Windchill Dew Point Humidity Pressure Visibility Wind Dir Wind Speed Gust Speed Precip Events Conditions
12:35 AM 52.7 °F - 34.9 °F 51% 30.17 in 10.0 mi SSE 6.9 mph - N/A   Clear
12:55 AM 52.9 °F - 34.9 °F 50% 30.18 in 10.0 mi SE 4.6 mph - N/A   Clear
1:15 AM 53.1 °F - 34.9 °F 50% 30.18 in 10.0 mi SE 4.6 mph - N/A   Clear
1:35 AM 52.7 °F - 34.9 °F 51% 30.18 in 10.0 mi SSE 3.5 mph - N/A   Clear
1:55 AM 50.7 °F - 34.9 °F 55% 30.17 in 10.0 mi South 8.1 mph - N/A   Clear
2:15 AM 50.0 °F - 35.6 °F 58% 30.17 in 10.0 mi South 5.8 mph - N/A   Clear
2:35 AM 48.9 °F - 35.8 °F 61% 30.17 in 10.0 mi SSW 6.9 mph - N/A   Clear
2:55 AM 48.0 °F - 35.6 °F 62% 30.16 in 10.0 mi SSW 5.8 mph - N/A   Clear
3:15 AM 48.6 °F - 34.7 °F 59% 30.16 in 10.0 mi South 6.9 mph - N/A   Clear
3:35 AM 47.8 °F - 34.7 °F 60% 30.15 in 10.0 mi SSW 6.9 mph - N/A   Clear
3:55 AM 48.6 °F - 34.7 °F 59% 30.15 in 10.0 mi SSW 6.9 mph - N/A   Clear
4:15 AM 46.0 °F 43.1 °F 34.5 °F 64% 30.15 in 10.0 mi SW 5.8 mph - N/A   Clear
4:35 AM 44.2 °F 39.7 °F 34.3 °F 68% 30.15 in 10.0 mi WSW 8.1 mph - N/A   Clear
4:55 AM 44.4 °F 42.9 °F 34.9 °F 69% 30.14 in 10.0 mi SW 3.5 mph - N/A   Clear
5:15 AM 44.6 °F - 34.7 °F 68% 30.14 in 10.0 mi Calm Calm - N/A   Clear
5:35 AM 43.2 °F - 34.3 °F 71% 30.14 in 10.0 mi Calm Calm - N/A   Clear
5:55 AM 43.0 °F - 34.5 °F 72% 30.14 in 10.0 mi Calm Calm - N/A   Clear
6:15 AM 44.1 °F - 34.3 °F 69% 30.14 in 10.0 mi Calm Calm - N/A   Clear
6:35 AM 43.3 °F 41.7 °F 34.0 °F 70% 30.14 in 10.0 mi ENE 3.5 mph - N/A   Clear
6:55 AM 41.4 °F 38.4 °F 33.3 °F 73% 30.15 in 10.0 mi ENE 4.6 mph - N/A   Clear
7:15 AM 41.4 °F 39.4 °F 33.4 °F 73% 30.15 in 10.0 mi NE 3.5 mph - N/A   Clear
7:35 AM 40.5 °F 38.4 °F 32.9 °F 74% 30.15 in 10.0 mi ENE 3.5 mph - N/A   Clear
7:55 AM 41.2 °F - 34.0 °F 76% 30.16 in 10.0 mi Calm Calm - N/A   Clear
8:15 AM 43.9 °F - 36.5 °F 75% 30.16 in 10.0 mi Calm Calm - N/A   Clear
8:35 AM 48.7 °F - 37.2 °F 64% 30.17 in 10.0 mi Calm Calm - N/A   Clear
8:55 AM 52.0 °F - 37.8 °F 58% 30.16 in 10.0 mi SE 6.9 mph - N/A   Clear
9:15 AM 55.6 °F - 37.9 °F 52% 30.16 in 10.0 mi SE 9.2 mph - N/A   Clear
9:35 AM 58.3 °F - 38.3 °F 47% 30.16 in 10.0 mi SSE 9.2 mph - N/A   Clear
9:55 AM 61.0 °F - 36.9 °F 41% 30.15 in 10.0 mi South 9.2 mph - N/A   Clear
10:15 AM 63.3 °F - 35.6 °F 36% 30.15 in 10.0 mi South 6.9 mph - N/A   Clear
10:35 AM 64.8 °F - 35.2 °F 33% 30.14 in 10.0 mi South 9.2 mph - N/A   Clear
10:55 AM 66.6 °F - 35.6 °F 32% 30.14 in 10.0 mi SSW 8.1 mph - N/A   Clear
11:15 AM 68.2 °F - 36.0 °F 31% 30.14 in 10.0 mi South 6.9 mph - N/A   Clear
11:35 AM 70.2 °F - 35.8 °F 28% 30.13 in 10.0 mi SSW 8.1 mph - N/A   Clear
11:55 AM 72.1 °F - 35.8 °F 26% 30.13 in 10.0 mi SSW 5.8 mph - N/A   Clear
12:15 PM 74.7 °F - 35.1 °F 24% 30.11 in 10.0 mi SSW 11.5 mph - N/A   Clear
12:35 PM 76.8 °F - 34.0 °F 21% 30.10 in 10.0 mi SSW 11.5 mph 17.3 mph N/A   Clear
12:55 PM 78.8 °F - 32.9 °F 19% 30.08 in 10.0 mi South 11.5 mph - N/A   Clear
1:15 PM 81.1 °F - 31.6 °F 17% 30.07 in 10.0 mi SW 10.4 mph 16.1 mph N/A   Clear
1:35 PM 83.3 °F - 30.7 °F 15% 30.06 in 10.0 mi SSW 13.8 mph 17.3 mph N/A   Clear
1:55 PM 85.5 °F - 29.3 °F 13% 30.04 in 10.0 mi South 15.0 mph - N/A   Clear
2:15 PM 86.5 °F - 28.6 °F 12% 30.03 in 10.0 mi South 16.1 mph 21.9 mph N/A   Clear
2:55 PM 88.3 °F - 27.7 °F 11% 30.00 in 10.0 mi South 19.6 mph 25.3 mph N/A   Clear
3:15 PM 89.1 °F - 28.0 °F 11% 29.98 in 10.0 mi South 23.0 mph 31.1 mph N/A   Clear
3:35 PM 89.4 °F - 28.4 °F 11% 29.96 in 10.0 mi South 18.4 mph 28.8 mph N/A   Clear
4:15 PM 90.3 °F - 28.4 °F 11% 29.94 in 10.0 mi South 23.0 mph 27.6 mph N/A   Clear
4:35 PM 90.7 °F - 27.7 °F 10% 29.93 in 10.0 mi South 20.7 mph 27.6 mph N/A   Clear
4:55 PM 91.0 °F - 26.1 °F 10% 29.92 in 10.0 mi South 20.7 mph 26.5 mph N/A   Clear
5:15 PM 90.9 °F - 26.2 °F 10% 29.91 in 10.0 mi South 18.4 mph 26.5 mph N/A   Clear
5:35 PM 90.9 °F - 26.2 °F 10% 29.90 in 10.0 mi South 23.0 mph 27.6 mph N/A   Clear
5:55 PM 90.7 °F - 27.0 °F 10% 29.89 in 10.0 mi South 18.4 mph 27.6 mph N/A   Clear
6:15 PM 90.0 °F - 27.3 °F 10% 29.89 in 10.0 mi South 20.7 mph 27.6 mph N/A   Clear
6:35 PM 89.4 °F - 27.7 °F 11% 29.88 in 10.0 mi South 19.6 mph 25.3 mph N/A   Clear
6:55 PM 88.3 °F - 27.3 °F 11% 29.88 in 10.0 mi South 21.9 mph 27.6 mph N/A   Clear
7:15 PM 87.4 °F - 27.5 °F 11% 29.87 in 10.0 mi South 18.4 mph - N/A   Clear
7:35 PM 86.0 °F - 27.5 °F 12% 29.86 in 10.0 mi South 19.6 mph 23.0 mph N/A   Clear
7:55 PM 84.2 °F - 27.0 °F 12% 29.86 in 10.0 mi South 16.1 mph - N/A   Clear
8:15 PM 82.2 °F - 26.8 °F 13% 29.85 in 10.0 mi SSE 13.8 mph - N/A   Clear
8:35 PM 79.3 °F - 27.7 °F 15% 29.86 in 10.0 mi SSE 11.5 mph - N/A   Clear
8:55 PM 77.0 °F - 29.7 °F 18% 29.86 in 10.0 mi SSE 12.7 mph - N/A   Clear
9:15 PM 76.1 °F - 30.7 °F 19% 29.86 in 10.0 mi SSE 12.7 mph - N/A   Clear
9:35 PM 75.0 °F - 31.5 °F 20% 29.86 in 10.0 mi SSE 12.7 mph - N/A   Clear
9:55 PM 73.9 °F - 31.8 °F 21% 29.87 in 10.0 mi SSE 11.5 mph - N/A   Clear
10:15 PM 72.7 °F - 32.0 °F 22% 29.87 in 10.0 mi SSE 13.8 mph - N/A   Clear
10:35 PM 72.9 °F - 32.0 °F 22% 29.87 in 10.0 mi SSE 15.0 mph - N/A   Clear
10:55 PM 72.3 °F - 31.8 °F 22% 29.87 in 10.0 mi South 15.0 mph - N/A   Clear
11:15 PM 71.6 °F - 31.8 °F 23% 29.87 in 10.0 mi South 15.0 mph - N/A   Clear
11:35 PM 71.1 °F - 31.8 °F 23% 29.87 in 10.0 mi South 15.0 mph 21.9 mph N/A   Clear
11:55 PM 72.0 °F - 31.3 °F 22% 29.87 in 10.0 mi South 17.3 mph 21.9 mph N/A   Clear